TimeCST,TemperatureF,Dew PointF,Humidity,Sea Level PressureIn,VisibilityMPH,Wind Direction,Wind SpeedMPH,Gust SpeedMPH,PrecipitationIn,Events,Conditions,WindDirDegrees,DateUTC
12:15 AM,48.2,32.0,54,29.90,10.0,Calm,Calm,-,N/A,,Clear,0,2012-12-18 06:15:00
12:35 AM,48.2,32.0,54,29.90,10.0,Calm,Calm,-,N/A,,Clear,0,2012-12-18 06:35:00
12:55 AM,48.2,32.0,54,29.89,10.0,Calm,Calm,-,N/A,,Clear,0,2012-12-18 06:55:00
1:15 AM,48.2,32.0,54,29.89,10.0,Calm,Calm,-,N/A,,Clear,0,2012-12-18 07:15:00
1:35 AM,46.4,32.0,57,29.89,10.0,Calm,Calm,-,N/A,,Clear,0,2012-12-18 07:35:00
1:55 AM,46.4,32.0,57,29.89,10.0,Calm,Calm,-,N/A,,Clear,0,2012-12-18 07:55:00
2:15 AM,46.4,32.0,57,29.89,10.0,Calm,Calm,-,N/A,,Clear,0,2012-12-18 08:15:00
2:35 AM,46.4,32.0,57,29.90,10.0,Calm,Calm,-,N/A,,Clear,0,2012-12-18 08:35:00
2:55 AM,46.4,32.0,57,29.90,10.0,Calm,Calm,-,N/A,,Clear,0,2012-12-18 08:55:00
3:15 AM,42.8,32.0,66,29.89,10.0,Calm,Calm,-,N/A,,Clear,0,2012-12-18 09:15:00
3:35 AM,46.4,32.0,57,29.89,10.0,Calm,Calm,-,N/A,,Clear,0,2012-12-18 09:35:00
3:55 AM,46.4,32.0,57,29.89,10.0,Calm,Calm,-,N/A,,Clear,0,2012-12-18 09:55:00
4:15 AM,46.4,32.0,57,29.88,10.0,Calm,Calm,-,N/A,,Clear,0,2012-12-18 10:15:00
4:35 AM,46.4,32.0,57,29.89,10.0,Calm,Calm,-,N/A,,Clear,0,2012-12-18 10:35:00
5:15 AM,44.6,32.0,61,29.88,10.0,Calm,Calm,-,N/A,,Clear,0,2012-12-18 11:15:00
5:35 AM,44.6,32.0,61,29.88,10.0,Calm,Calm,-,N/A,,Clear,0,2012-12-18 11:35:00
5:55 AM,44.6,32.0,61,29.89,10.0,Calm,Calm,-,N/A,,Clear,0,2012-12-18 11:55:00
6:15 AM,44.6,32.0,61,29.89,10.0,Calm,Calm,-,N/A,,Clear,0,2012-12-18 12:15:00
6:35 AM,46.4,32.0,57,29.90,10.0,Calm,Calm,-,N/A,,Clear,0,2012-12-18 12:35:00
6:55 AM,46.4,32.0,57,29.90,10.0,Calm,Calm,-,N/A,,Clear,0,2012-12-18 12:55:00
7:15 AM,46.4,32.0,57,29.90,10.0,Calm,Calm,-,N/A,,Clear,0,2012-12-18 13:15:00
7:35 AM,46.4,32.0,57,29.91,10.0,Calm,Calm,-,N/A,,Clear,0,2012-12-18 13:35:00
7:55 AM,48.2,32.0,54,29.91,10.0,Calm,Calm,-,N/A,,Clear,0,2012-12-18 13:55:00
8:15 AM,50.0,32.0,50,29.91,10.0,Calm,Calm,-,N/A,,Clear,0,2012-12-18 14:15:00
8:35 AM,51.8,32.0,47,29.91,10.0,Calm,Calm,-,N/A,,Clear,0,2012-12-18 14:35:00
8:55 AM,55.4,32.0,41,29.91,10.0,Calm,Calm,-,N/A,,Clear,0,2012-12-18 14:55:00
9:15 AM,59.0,30.2,34,29.92,10.0,Calm,Calm,-,N/A,,Clear,0,2012-12-18 15:15:00
9:35 AM,60.8,28.4,29,29.93,10.0,Calm,Calm,-,N/A,,Clear,0,2012-12-18 15:35:00
9:55 AM,62.6,26.6,26,29.93,10.0,Calm,Calm,-,N/A,,Clear,0,2012-12-18 15:55:00
10:15 AM,64.4,26.6,24,29.93,10.0,Calm,Calm,-,N/A,,Clear,0,2012-12-18 16:15:00
10:35 AM,68.0,26.6,21,29.93,10.0,Calm,Calm,-,N/A,,Clear,0,2012-12-18 16:35:00
10:55 AM,69.8,26.6,20,29.93,10.0,Calm,Calm,-,N/A,,Clear,0,2012-12-18 16:55:00
11:15 AM,73.4,26.6,18,29.92,10.0,Calm,Calm,-,N/A,,Clear,0,2012-12-18 17:15:00
11:35 AM,77.0,15.8,10,29.92,10.0,SSW,11.5,-,N/A,,Clear,200,2012-12-18 17:35:00
11:55 AM,78.8,14.0,9,29.91,10.0,SSW,18.4,24.2,N/A,,Clear,210,2012-12-18 17:55:00
12:15 PM,80.6,15.8,9,29.90,10.0,South,11.5,16.1,N/A,,Clear,180,2012-12-18 18:15:00
12:35 PM,80.6,14.0,8,29.88,10.0,South,5.8,17.3,N/A,,Clear,180,2012-12-18 18:35:00
12:55 PM,80.6,14.0,8,29.88,10.0,South,11.5,19.6,N/A,,Clear,190,2012-12-18 18:55:00
1:15 PM,82.4,14.0,8,29.86,10.0,SSW,13.8,21.9,N/A,,Clear,200,2012-12-18 19:15:00
1:35 PM,82.4,14.0,8,29.85,10.0,SSW,15.0,-,N/A,,Clear,210,2012-12-18 19:35:00
1:55 PM,84.2,12.2,7,29.84,10.0,Calm,Calm,-,N/A,,Clear,0,2012-12-18 19:55:00
2:15 PM,84.2,8.6,6,29.84,10.0,SSW,11.5,-,N/A,,Clear,200,2012-12-18 20:15:00
2:35 PM,84.2,12.2,7,29.83,10.0,South,11.5,-,N/A,,Clear,180,2012-12-18 20:35:00
2:55 PM,84.2,14.0,7,29.83,10.0,SSE,11.5,-,N/A,,Clear,160,2012-12-18 20:55:00
3:15 PM,82.4,19.4,10,29.82,10.0,South,13.8,-,N/A,,Clear,180,2012-12-18 21:15:00
3:35 PM,82.4,19.4,10,29.82,10.0,South,13.8,-,N/A,,Clear,170,2012-12-18 21:35:00
3:55 PM,82.4,21.2,10,29.81,10.0,South,9.2,-,N/A,,Clear,190,2012-12-18 21:55:00
4:15 PM,82.4,21.2,10,29.81,10.0,South,15.0,18.4,N/A,,Clear,180,2012-12-18 22:15:00
4:35 PM,82.4,21.2,10,29.80,10.0,Calm,Calm,-,N/A,,Clear,0,2012-12-18 22:35:00
4:55 PM,80.6,26.6,14,29.80,10.0,Calm,Calm,-,N/A,,Clear,0,2012-12-18 22:55:00
5:15 PM,78.8,28.4,16,29.80,10.0,Calm,Calm,-,N/A,,Clear,0,2012-12-18 23:15:00
5:35 PM,77.0,30.2,18,29.80,10.0,Calm,Calm,-,N/A,,Clear,0,2012-12-18 23:35:00
5:55 PM,73.4,33.8,23,29.80,10.0,Calm,Calm,-,N/A,,Clear,0,2012-12-18 23:55:00
6:15 PM,73.4,37.4,27,29.80,10.0,Calm,Calm,-,N/A,,Clear,0,2012-12-19 00:15:00
6:35 PM,71.6,37.4,29,29.80,10.0,Calm,Calm,-,N/A,,Clear,0,2012-12-19 00:35:00
6:55 PM,71.6,37.4,29,29.81,10.0,Calm,Calm,-,N/A,,Clear,0,2012-12-19 00:55:00
7:15 PM,71.6,41.0,33,29.83,10.0,Calm,Calm,-,N/A,,Clear,0,2012-12-19 01:15:00
7:35 PM,71.6,44.6,38,29.83,10.0,SE,5.8,-,N/A,,Clear,140,2012-12-19 01:35:00
7:55 PM,69.8,44.6,40,29.83,10.0,Calm,Calm,-,N/A,,Clear,0,2012-12-19 01:55:00
8:15 PM,69.8,46.4,43,29.84,10.0,Calm,Calm,-,N/A,,Clear,0,2012-12-19 02:15:00
8:35 PM,68.0,46.4,46,29.84,10.0,Calm,Calm,-,N/A,,Clear,0,2012-12-19 02:35:00
8:55 PM,68.0,46.4,46,29.84,10.0,Calm,Calm,-,N/A,,Clear,0,2012-12-19 02:55:00
9:15 PM,66.2,48.2,52,29.85,10.0,Calm,Calm,-,N/A,,Clear,0,2012-12-19 03:15:00
9:35 PM,64.4,50.0,59,29.85,10.0,SE,4.6,-,N/A,,Clear,130,2012-12-19 03:35:00
9:55 PM,64.4,50.0,59,29.85,10.0,Calm,Calm,-,N/A,,Clear,0,2012-12-19 03:55:00
10:15 PM,64.4,51.8,64,29.85,10.0,Calm,Calm,-,N/A,,Clear,0,2012-12-19 04:15:00
10:35 PM,64.4,51.8,64,29.85,10.0,Calm,Calm,-,N/A,,Clear,0,2012-12-19 04:35:00
10:55 PM,64.4,51.8,64,29.85,10.0,Calm,Calm,-,N/A,,Clear,0,2012-12-19 04:55:00
11:15 PM,62.6,53.6,72,29.85,10.0,Calm,Calm,-,N/A,,Clear,0,2012-12-19 05:15:00
11:35 PM,64.4,53.6,68,29.85,10.0,Calm,Calm,-,N/A,,Clear,0,2012-12-19 05:35:00
11:55 PM,64.4,53.6,68,29.85,10.0,Calm,Calm,-,N/A,,Clear,0,2012-12-19 05:55:00